Bierset, Belgium

1:05 AM CEST on September 28, 2016 (GMT +0200)
Liege

Weather History for EBLG - October, 2011

Change the Weather History Date:

Thursday, October 27, 2011

  Actual Average Record
Temperature  
Mean Temperature 56 °F -  
Max Temperature 64 °F 54 °F 69 °F (2005)
Min Temperature 47 °F 43 °F 28 °F (2012)
Degree Days  
Heating Degree Days 10    
Growing Degree Days 6 (Base 50)    
Moisture  
Dew Point 41 °F    
Average Humidity 60    
Maximum Humidity 81    
Minimum Humidity 33    
Precipitation  
Precipitation 0.00 in - - ()
Sea Level Pressure  
Sea Level Pressure 29.91 in    
Wind  
Wind Speed 9 mph ()    
Max Wind Speed 16 mph    
Max Gust Speed 28 mph    
Visibility 16.7 miles    
Events      
Averages and records for this station are not official NWS values.
T = Trace of Precipitation, MM = Missing Value Source: Averaged Metar Reports

Daily Weather History Graph

Daily Weather History Graph

Search for Another Location

Airport or City:

Trip Planner

Search our weather history database for the weather conditions in past years. The results will help you decide how hot, cold, wet, or windy it might be!

Date:

Astronomy

Oct. 27, 2011 Rise Set
Actual Time 8:20 AM CEST 6:23 PM CEST
Civil Twilight 7:46 AM CEST 6:57 PM CEST
Nautical Twilight 7:07 AM CEST 7:35 PM CEST
Astronomical Twilight 6:29 AM CEST 8:13 PM CEST
Moon 9:15 AM CEST 6:25 PM CEST
Length of Visible Light 11h 10m
Length of Day
10h 03m
New Moon, 1% of the Moon is Illuminated
Oct 27
New Moon
Nov 2
First Quarter
Nov 10
Full
Nov 18
Last Quarter
Nov 25
New

Hourly Weather History & Observations

Time (CEST) Temp. Windchill Dew Point Humidity Pressure Visibility Wind Dir Wind Speed Gust Speed Precip Events Conditions
12:20 AM 48.2 °F - 41.0 °F 76% 29.95 in - SE 8.1 mph - N/A   Clear
12:50 AM 48.2 °F - 41.0 °F 76% 29.95 in - SSE 6.9 mph - N/A   Clear
1:20 AM 48.2 °F - 39.2 °F 71% 29.95 in - SE 5.8 mph - N/A   Clear
1:50 AM 46.4 °F 42.9 °F 41.0 °F 81% 29.95 in - SE 6.9 mph - N/A   Clear
2:00 AM 47 °F - 40 °F 70% 29.96 in 25 mi SE 6.7 mph - -  
2:20 AM 48.2 °F - 41.0 °F 76% 29.95 in - SE 6.9 mph - N/A   Clear
2:50 AM 48.2 °F - 41.0 °F 76% 29.95 in - SSE 8.1 mph - N/A   Clear
3:20 AM 48.2 °F - 41.0 °F 76% 29.95 in - SE 8.1 mph - N/A   Clear
3:50 AM 48.2 °F - 41.0 °F 76% 29.92 in - SE 10.4 mph - N/A   Clear
4:20 AM 48.2 °F - 39.2 °F 71% 29.92 in - SE 8.1 mph 19.6 mph N/A   Clear
4:50 AM 48.2 °F - 39.2 °F 71% 29.92 in - SE 10.4 mph - N/A   Clear
5:00 AM 48 °F - 40 °F 65% 29.93 in 16 mi SE 8.9 mph - -   Scattered Clouds
5:20 AM 48.2 °F - 39.2 °F 71% 29.92 in - SE 10.4 mph - N/A   Clear
5:50 AM 48.2 °F - 39.2 °F 71% 29.89 in - SSE 10.4 mph - N/A   Clear
6:20 AM 48.2 °F - 39.2 °F 71% 29.89 in - SE 11.5 mph - N/A   Clear
6:50 AM 48.2 °F - 39.2 °F 71% 29.89 in - SE 12.7 mph - N/A   Clear
7:20 AM 48.2 °F - 39.2 °F 71% 29.89 in - SSE 12.7 mph - N/A   Clear
7:50 AM 48.2 °F - 39.2 °F 71% 29.89 in - SE 11.5 mph - N/A   Clear
8:00 AM 49 °F - 39 °F 58% 29.90 in 12 mi SE 11.2 mph - -   Partly Cloudy
8:20 AM 48.2 °F - 39.2 °F 71% 29.89 in - SE 10.4 mph - N/A   Clear
8:50 AM 50.0 °F - 39.2 °F 66% 29.89 in - SE 9.2 mph - N/A   Clear
9:20 AM 50.0 °F - 39.2 °F 66% 29.89 in - SE 9.2 mph - N/A   Clear
9:50 AM 50.0 °F - 39.2 °F 66% 29.89 in - SE 10.4 mph - N/A   Clear
10:20 AM 51.8 °F - 39.2 °F 62% 29.89 in - SE 9.2 mph - N/A   Clear
10:50 AM 53.6 °F - 39.2 °F 58% 29.89 in - SE 9.2 mph - N/A   Clear
11:00 AM 53 °F - 40 °F 49% 29.91 in 16 mi SE 8.9 mph - -   Scattered Clouds
11:20 AM 55.4 °F - 39.2 °F 54% 29.89 in - SE 11.5 mph 27.6 mph N/A   Clear
11:50 AM 55.4 °F - 39.2 °F 54% 29.89 in - SE 13.8 mph - N/A   Clear
12:20 PM 57.2 °F - 41.0 °F 55% 29.89 in - SE 15.0 mph - N/A   Clear
12:50 PM 59.0 °F - 41.0 °F 51% 29.89 in - SE 15.0 mph - N/A   Clear
1:20 PM 60.8 °F - 41.0 °F 48% 29.89 in - SSE 10.4 mph - N/A   Clear
1:50 PM 62.6 °F - 41.0 °F 45% 29.89 in - SSE 11.5 mph - N/A   Clear
2:00 PM 62 °F - 41 °F 35% 29.88 in 16 mi SSE 11.2 mph - -   Partly Cloudy
2:20 PM 62.6 °F - 39.2 °F 42% 29.89 in - South 16.1 mph - N/A   Clear
2:50 PM 62.6 °F - 39.2 °F 42% 29.86 in - South 13.8 mph - N/A   Clear
3:20 PM 62.6 °F - 39.2 °F 42% 29.86 in - South 12.7 mph - N/A   Clear
3:50 PM 64.4 °F - 41.0 °F 42% 29.86 in - South 13.8 mph - N/A   Clear
4:20 PM 64.4 °F - 41.0 °F 42% 29.89 in - South 13.8 mph - N/A   Clear
4:50 PM 62.6 °F - 41.0 °F 45% 29.89 in - South 12.7 mph - N/A   Clear
5:00 PM 63 °F - 41 °F 33% 29.88 in 19 mi South 13.4 mph - -   Scattered Clouds
5:20 PM 60.8 °F - 41.0 °F 48% 29.89 in - South 12.7 mph - N/A   Clear
5:50 PM 60.8 °F - 42.8 °F 52% 29.89 in - South 10.4 mph - N/A   Clear
6:20 PM 59.0 °F - 42.8 °F 55% 29.89 in - SSE 6.9 mph - N/A   Clear
6:50 PM 59.0 °F - 42.8 °F 55% 29.89 in - SSE 8.1 mph - N/A   Clear
7:20 PM 59.0 °F - 42.8 °F 55% 29.92 in - SSE 6.9 mph - N/A   Clear
7:50 PM 57.2 °F - 42.8 °F 59% 29.92 in - SSE 10.4 mph - N/A   Clear
8:00 PM 57 °F - 43 °F 48% 29.93 in 19 mi SSE 11.2 mph - -   Scattered Clouds
8:20 PM 55.4 °F - 42.8 °F 63% 29.92 in - SSE 9.2 mph - N/A   Clear
8:50 PM 55.4 °F - 42.8 °F 63% 29.95 in - SSE 9.2 mph - N/A   Clear
9:20 PM 55.4 °F - 42.8 °F 63% 29.95 in - South 11.5 mph - N/A   Clear
9:50 PM 55.4 °F - 42.8 °F 63% 29.95 in - South 11.5 mph - N/A   Clear
10:20 PM 53.6 °F - 42.8 °F 67% 29.98 in - South 11.5 mph 23.0 mph N/A   Clear
10:50 PM 53.6 °F - 42.8 °F 67% 29.98 in - SSE 9.2 mph - N/A   Clear
11:00 PM 54 °F - 43 °F 55% 29.98 in 19 mi SSE 8.9 mph - -   Partly Cloudy
11:20 PM 53.6 °F - 42.8 °F 67% 29.98 in - SSE 10.4 mph - N/A   Clear
11:50 PM 53.6 °F - 42.8 °F 67% 29.98 in - SSE 9.2 mph - N/A   Clear